Vorticity
9 -6 -10 -2 -3 -8 1 -2 4 7 7 5 5 4 4 6 6 9 13 14 14 10
13 3 2 8 13 10 5 6 8 8 6 5 5 5 6 7 12 12 12 11 8 6
8 16 11 8 8 9 8 9 10 8 6 5 6 7 9 9 10 12 12 7 6 16
9 6 5 4 -2 5 5 5 7 7 8 8 9 9 9 10 14 12 7 7 19 9
5 8 18 10 -4 12 13 11 8 7 7 7 7 8 9 14 11 8 7 21 14 3
11 11 22 19 9 8 8 7 7 7 8 8 8 10 14 11 8 8 19 10 6 6
11 15 5 15 15 12 11 10 10 9 8 9 14 14 11 9 10 18 5 7 8 2
11 10 -5 8 8 15 14 12 11 11 16 14 12 9 9 11 20 7 5 11 2 6
-6 -5 34 1 -7 2 4 8 9 11 12 9 9 9 11 20 7 8 7 0 4 10
13 17 14 5 1 4 8 18 18 11 9 10 10 16 15 8 9 6 4 0 10 7
13 15 17 19 18 19 14 10 9 10 11 12 18 9 7 11 4 3 4 11 9 13
14 10 12 12 10 9 7 9 11 14 13 16 2 17 9 2 5 5 11 10 11 10
17 7 9 8 7 9 12 14 14 11 12 13 13 4 4 5 7 12 10 11 10 6
3 4 5 12 13 11 13 14 12 13 11 8 7 6 9 11 10 10 12 8 6 12
Height
5762 5765 5768 5770 5773 5775 5777 5778 5778 5779 5779 5780 5779 5778 5777 5775 5773 5772 5770 5768 5765 5762
5753 5757 5760 5762 5763 5765 5766 5767 5767 5767 5767 5768 5768 5767 5766 5765 5763 5761 5759 5758 5755 5753
5742 5746 5749 5752 5754 5756 5758 5758 5759 5759 5758 5758 5758 5757 5756 5754 5753 5751 5750 5748 5746 5743
5731 5735 5738 5741 5744 5745 5747 5748 5749 5749 5749 5750 5749 5748 5746 5745 5744 5742 5741 5739 5736 5735
5720 5722 5726 5729 5732 5734 5735 5736 5737 5738 5738 5738 5738 5738 5737 5736 5734 5733 5731 5729 5728 5727
5710 5713 5715 5718 5720 5722 5724 5726 5727 5728 5728 5728 5728 5727 5727 5726 5725 5724 5723 5722 5720 5719
5700 5703 5706 5708 5710 5712 5714 5715 5717 5718 5718 5718 5718 5717 5717 5717 5716 5715 5715 5713 5711 5710
5691 5693 5696 5698 5701 5702 5704 5705 5707 5707 5707 5707 5707 5708 5708 5707 5706 5707 5706 5705 5703 5701
5682 5684 5687 5689 5690 5692 5694 5696 5696 5697 5698 5698 5699 5699 5698 5699 5699 5699 5698 5697 5695 5692
5674 5676 5678 5680 5682 5684 5686 5686 5688 5688 5689 5690 5690 5690 5690 5691 5691 5691 5690 5688 5685 5683
5665 5667 5668 5670 5672 5674 5676 5677 5679 5680 5681 5682 5682 5682 5684 5683 5683 5682 5681 5679 5677 5674
5656 5658 5660 5662 5664 5666 5667 5669 5671 5672 5673 5674 5675 5676 5676 5676 5675 5674 5672 5670 5668 5666
5647 5650 5652 5654 5656 5658 5660 5662 5663 5664 5666 5667 5668 5669 5669 5668 5667 5665 5664 5663 5660 5657
5640 5642 5645 5647 5649 5651 5653 5655 5656 5658 5659 5661 5662 5662 5661 5660 5659 5658 5656 5653 5651 5649